This is the latest recevied weather packets stored in our database for station/object AA7VG. If no packets are shown the sender has not sent any weather packets the latest 1 day(s).
| Time | Temp. | Humidity | Pressure | Rain* | Wind** | Luminosity | Snow |
|---|---|---|---|---|---|---|---|
| 1778037626 | 3.33° C | 45% | 1017.8 hPa | 0 mm | 0.45 m/s, 11° | - | - |
| 1778037324 | 3.33° C | 44% | 1017.7 hPa | 0 mm | 0.45 m/s, 353° | - | - |
| 1778037021 | 3.89° C | 44% | 1018 hPa | 0 mm | 0.89 m/s, 297° | - | - |
| 1778036719 | 3.89° C | 43% | 1017.6 hPa | 0 mm | 0.89 m/s, 337° | - | - |
| 1778036416 | 3.89° C | 43% | 1017.8 hPa | 0 mm | 1.79 m/s, 328° | - | - |
| 1778036113 | 4.44° C | 43% | 1017.5 hPa | 0 mm | 2.68 m/s, 350° | - | - |
| 1778035809 | 4.44° C | 41% | 1017.5 hPa | 0 mm | 1.79 m/s, 31° | - | - |
| 1778035506 | 4.44° C | 42% | 1017.2 hPa | 0 mm | 2.68 m/s, 318° | - | - |
| 1778035202 | 4.44° C | 44% | 1017.5 hPa | 0 mm | 0.89 m/s, 352° | - | - |
| 1778034899 | 4.44° C | 46% | 1016.8 hPa | 0 mm | 1.79 m/s, 348° | - | - |
| 1778034595 | 5° C | 45% | 1016.8 hPa | 0 mm | 0.89 m/s, 64° | - | - |
| 1778034293 | 5° C | 45% | 1016.9 hPa | 0 mm | 0.89 m/s, 15° | - | - |
| 1778033991 | 5° C | 45% | 1016.6 hPa | 0 mm | 1.34 m/s, 349° | - | - |
| 1778033688 | 5.56° C | 44% | 1016.8 hPa | 0 mm | 1.34 m/s, 338° | - | - |
| 1778033385 | 5.56° C | 43% | 1016.7 hPa | 0 mm | 2.68 m/s, 314° | - | - |
| 1778033083 | 5.56° C | 41% | 1016.9 hPa | 0 mm | 2.68 m/s, 335° | - | - |
| 1778032780 | 6.11° C | 42% | 1016.6 hPa | 0 mm | 1.79 m/s, 357° | - | - |
| 1778032477 | 6.11° C | 41% | 1016.6 hPa | 0 mm | 1.79 m/s, 356° | - | - |
| 1778032174 | 6.11° C | 41% | 1016.4 hPa | 0 mm | 2.24 m/s, 355° | - | - |
| 1778031871 | 6.11° C | 42% | 1016.4 hPa | 0 mm | 1.79 m/s, 18° | - | - |
| 1778031567 | 6.11° C | 42% | 1016.2 hPa | 0 mm | 1.79 m/s, 6° | - | - |
| 1778031266 | 6.67° C | 40% | 1016.2 hPa | 0 mm | 1.79 m/s, 316° | - | - |
| 1778030961 | 6.67° C | 39% | 1016.3 hPa | 0 mm | 1.34 m/s, 329° | - | - |
| 1778030658 | 6.67° C | 38% | 1016.3 hPa | 0 mm | 2.68 m/s, 324° | - | - |
| 1778030355 | 7.22° C | 38% | 1016.3 hPa | 0 mm | 3.58 m/s, 13° | - | - |
* Rain latest hour (hover to see other rain measurements)
** Current wind speed in m/s (hover to see current wind gust speed)